Rockford, IL

4:08 AM CDT on July 22, 2017 (GMT -0500)
Greater Rockford

Weather History for KRFD - April, 2014

Change the Weather History Date:

Monday, April 14, 2014

  Actual Average Record
Temperature  
Mean Temperature 38 °F 49 °F  
Max Temperature 47 °F 60 °F 85 °F (2003)
Min Temperature 28 °F 38 °F 21 °F (1957)
Degree Days  
Heating Degree Days 27 16  
Month to date heating degree days 250 263  
Since 1 July heating degree days 7234 6127  
Cooling Degree Days 0 0  
Month to date cooling degree days 0 0  
Year to date cooling degree days 0 0  
Moisture  
Dew Point 32 °F    
Average Humidity 84    
Maximum Humidity 93    
Minimum Humidity 75    
Precipitation  
Precipitation 0.22 in 0.11 in 0.92 in (1965)
Month to date precipitation 1.71 1.54  
Year to date precipitation 6.48 6.64  
Snow  
Snow 0.30 in 0.10 in 3.90 in (1980)
Month to date snowfall 0.3 0.7  
Since 1 July snowfall 56.9 36.5  
Snow Depth 0.00 in    
Sea Level Pressure  
Sea Level Pressure 29.78 in    
Wind  
Wind Speed 16 mph (North)    
Max Wind Speed 30 mph    
Max Gust Speed 39 mph    
Visibility 5 miles    
Events Rain , Snow    
T = Trace of Precipitation, MM = Missing Value Source: NWS Daily Summary

Daily Weather History Graph

Daily Weather History Graph

Search for Another Location

Airport or City:

Trip Planner

Search our weather history database for the weather conditions in past years. The results will help you decide how hot, cold, wet, or windy it might be!

Date:

Astronomy

Apr. 14, 2014 Rise Set
Actual Time 6:17 AM CDT 7:36 PM CDT
Civil Twilight 5:48 AM CDT 8:05 PM CDT
Nautical Twilight 5:13 AM CDT 8:40 PM CDT
Astronomical Twilight 4:36 AM CDT 9:17 PM CDT
Moon 7:15 PM CDT (4/14) 5:50 AM CDT (4/14)
Length of Visible Light 14h 17m
Length of Day
13h 19m
Full, 100% of the Moon is Illuminated
Apr 14
Full
Apr 15
Full
Apr 22
Last Quarter
Apr 29
New
May 6
First Quarter

Hourly Weather History & Observations

Time (CDT) Temp. Windchill Dew Point Humidity Pressure Visibility Wind Dir Wind Speed Gust Speed Precip Events Conditions
12:06 AM 48.9 °F - 46.0 °F 90% 29.40 in 10.0 mi NE 12.7 mph - N/A   Overcast
12:39 AM 48.0 °F - 45.0 °F 89% 29.41 in 10.0 mi NNW 15.0 mph - N/A   Overcast
12:54 AM 46.9 °F - 45.0 °F 93% 29.40 in 10.0 mi North 18.4 mph - N/A   Overcast
1:46 AM 46.9 °F - 44.1 °F 90% 29.39 in 5.0 mi NNW 15.0 mph - 0.03 in Rain Rain
1:54 AM 46.0 °F 38.8 °F 44.1 °F 93% 29.40 in 4.0 mi North 18.4 mph - 0.05 in Rain Rain
2:10 AM 45.0 °F 36.6 °F 42.1 °F 90% 29.41 in 2.5 mi North 21.9 mph - 0.04 in Rain Light Rain
2:12 AM 45.0 °F 36.2 °F 42.1 °F 90% 29.41 in 2.5 mi North 24.2 mph - 0.04 in Rain Rain
2:15 AM 45.0 °F 36.2 °F 42.1 °F 90% 29.40 in 3.0 mi North 24.2 mph 32.2 mph 0.04 in Rain Rain
2:27 AM 44.1 °F 36.2 °F 41.0 °F 89% 29.41 in 8.0 mi North 18.4 mph 28.8 mph 0.05 in Rain Light Rain
2:38 AM 43.0 °F 32.9 °F 39.9 °F 89% 29.41 in 10.0 mi North 27.6 mph 36.8 mph 0.05 in Rain Light Rain
2:54 AM 43.0 °F 33.5 °F 39.0 °F 86% 29.42 in 10.0 mi NNE 24.2 mph 35.7 mph 0.05 in Rain Light Rain
3:11 AM 42.1 °F 33.1 °F 39.0 °F 89% 29.43 in 3.0 mi North 20.7 mph 27.6 mph 0.00 in Rain Light Rain
3:25 AM 42.1 °F 33.3 °F 39.9 °F 92% 29.45 in 2.5 mi North 19.6 mph 28.8 mph 0.01 in Rain Light Rain
3:34 AM 42.1 °F 32.8 °F 39.0 °F 89% 29.46 in 3.0 mi North 21.9 mph 31.1 mph 0.02 in Rain Light Rain
3:54 AM 41.0 °F 31.1 °F 37.0 °F 86% 29.50 in 6.0 mi NNW 23.0 mph 35.7 mph 0.02 in Rain Light Rain
4:54 AM 39.0 °F 28.8 °F 35.1 °F 86% 29.57 in 5.0 mi North 21.9 mph 36.8 mph 0.01 in Rain Light Rain
5:44 AM 37.0 °F 26.7 °F 33.1 °F 86% 29.61 in 10.0 mi North 19.6 mph 32.2 mph 0.00 in   Overcast
5:54 AM 37.0 °F 27.0 °F 33.1 °F 86% 29.63 in 10.0 mi North 18.4 mph 32.2 mph 0.00 in   Overcast
6:54 AM 37.0 °F 25.9 °F 32.0 °F 82% 29.67 in 10.0 mi North 23.0 mph 31.1 mph N/A   Overcast
7:54 AM 37.9 °F 27.6 °F 32.0 °F 79% 29.75 in 10.0 mi North 20.7 mph 27.6 mph N/A   Overcast
8:54 AM 37.9 °F 27.9 °F 30.9 °F 76% 29.78 in 10.0 mi North 19.6 mph 28.8 mph N/A   Overcast
9:54 AM 37.9 °F 29.2 °F 30.0 °F 73% 29.84 in 10.0 mi North 15.0 mph 28.8 mph N/A   Overcast
10:54 AM 36.0 °F 25.6 °F 28.9 °F 76% 29.89 in 10.0 mi NNW 18.4 mph - N/A   Overcast
11:54 AM 36.0 °F 26.7 °F 28.0 °F 73% 29.90 in 7.0 mi North 15.0 mph 25.3 mph 0.00 in Snow Light Snow
12:54 PM 35.1 °F 25.2 °F 28.0 °F 76% 29.91 in 4.0 mi NNW 16.1 mph 24.2 mph 0.00 in Snow Light Snow
1:51 PM 35.6 °F 26.2 °F 28.4 °F 75% 29.91 in 5.0 mi North 15.0 mph - 0.01 in Snow Light Snow
1:54 PM 35.1 °F 24.8 °F 28.0 °F 76% 29.92 in 5.0 mi NNW 17.3 mph 23.0 mph 0.01 in Snow Light Snow
2:06 PM 35.1 °F 26.4 °F 28.9 °F 78% 29.91 in 3.0 mi NNW 12.7 mph - 0.00 in Snow Light Snow
2:20 PM 34.0 °F 23.8 °F 28.9 °F 82% 29.90 in 2.5 mi NNW 16.1 mph - 0.00 in Snow Light Snow
2:54 PM 34.0 °F 24.2 °F 28.9 °F 82% 29.94 in 2.0 mi NNW 15.0 mph - 0.00 in Snow Light Snow
3:11 PM 33.1 °F 23.4 °F 28.9 °F 85% 29.93 in 1.5 mi NNW 13.8 mph - 0.01 in Snow Light Snow
3:31 PM 34.0 °F 25.0 °F 30.0 °F 85% 29.92 in 0.8 mi NNW 12.7 mph - 0.01 in Snow Light Snow
3:35 PM 33.1 °F 24.4 °F 30.0 °F 89% 29.93 in 0.5 mi North 11.5 mph - 0.01 in Snow Snow
3:46 PM 33.1 °F 24.4 °F 30.0 °F 89% 29.93 in 0.5 mi NNW 11.5 mph - 0.03 in Snow Snow
3:54 PM 32.0 °F 21.6 °F 28.9 °F 88% 29.95 in 0.8 mi NNW 15.0 mph - 0.03 in Snow Light Snow
4:30 PM 32.0 °F 21.6 °F 28.0 °F 85% 29.94 in 0.8 mi North 15.0 mph 21.9 mph 0.02 in Snow Light Snow
4:50 PM 32.0 °F 20.8 °F 28.4 °F 87% 29.94 in 1.0 mi NNW 17.3 mph 23.0 mph 0.02 in Snow Light Snow
4:54 PM 32.0 °F 21.6 °F 28.9 °F 88% 29.96 in 1.0 mi NNW 15.0 mph - 0.02 in Snow Light Snow
5:22 PM 32.0 °F 23.0 °F 28.0 °F 85% 29.95 in 1.0 mi NNW 11.5 mph - 0.00 in Snow Light Snow
5:54 PM 32.0 °F 21.6 °F 28.0 °F 85% 29.99 in 1.0 mi NNW 15.0 mph - 0.01 in Snow Light Snow
6:30 PM 32.0 °F 26.4 °F 28.9 °F 88% 29.98 in 3.0 mi NNW 5.8 mph - 0.01 in Snow Light Snow
6:54 PM 32.0 °F 24.2 °F 28.9 °F 88% 30.01 in 2.0 mi North 9.2 mph - 0.01 in Snow Light Snow
7:05 PM 32.0 °F 23.6 °F 28.0 °F 85% 29.98 in 2.0 mi North 10.4 mph - 0.00 in Snow Light Snow
7:20 PM 32.0 °F 24.8 °F 28.0 °F 85% 29.98 in 1.5 mi NNW 8.1 mph - 0.00 in Snow Light Snow
7:33 PM 32.0 °F 24.2 °F 28.0 °F 85% 29.99 in 2.0 mi NNW 9.2 mph - 0.00 in Snow Light Snow
7:43 PM 32.0 °F 23.6 °F 28.0 °F 85% 29.99 in 2.0 mi NNW 10.4 mph - 0.00 in Snow Light Snow
7:54 PM 30.9 °F 21.7 °F 28.0 °F 89% 30.01 in 2.0 mi North 11.5 mph - 0.01 in Snow Light Snow
8:23 PM 30.9 °F 21.7 °F 28.0 °F 89% 30.01 in 2.0 mi NNW 11.5 mph - 0.00 in Snow Light Snow
8:34 PM 30.9 °F 22.2 °F 27.0 °F 85% 30.01 in 3.0 mi North 10.4 mph - 0.00 in Snow Light Snow
8:54 PM 30.9 °F 22.2 °F 27.0 °F 85% 30.04 in 3.0 mi North 10.4 mph - 0.00 in Snow Light Snow
9:54 PM 30.9 °F 22.8 °F 25.0 °F 79% 30.05 in 7.0 mi NNW 9.2 mph - 0.00 in   Overcast
10:14 PM 30.9 °F 22.8 °F 26.1 °F 82% 30.03 in 6.0 mi NNW 9.2 mph - 0.00 in Snow Light Snow
10:36 PM 30.0 °F 22.4 °F 24.1 °F 79% 30.03 in 7.0 mi North 8.1 mph - 0.00 in   Mostly Cloudy
10:54 PM 30.0 °F 21.7 °F 24.1 °F 79% 30.06 in 8.0 mi NNW 9.2 mph - 0.00 in   Scattered Clouds
11:54 PM 28.9 °F 21.9 °F 24.1 °F 82% 30.05 in 10.0 mi NNW 6.9 mph - N/A   Partly Cloudy